Location: Unspecified
(0.0000°N, 0.0000°E)
Time: 16:55:19
(UTC+00:00)

S80/T - Visible Passes

Search period start: 15 April 2024 00:00
Search period end: 25 April 2024 00:00
Orbit: 1301 x 1327 km, 66.1° (Epoch: 14 April)

Date Brightness Start Highest point End Pass type
(mag) Time Alt. Az. Time Alt. Az. Time Alt. Az.
15 Apr ? 18:16:10 10° S 18:23:51 49° ESE 18:31:31 10° NE visible
15 Apr ? 20:13:16 10° WSW 20:18:54 21° WNW 20:24:34 10° NNW visible
16 Apr ? 18:31:26 10° SSW 18:39:29 80° ESE 18:47:33 10° NNE visible
16 Apr ? 20:33:00 10° W 20:34:39 11° WNW 20:36:19 10° NW visible
17 Apr ? 04:50:40 10° ENE 04:52:10 11° ENE 04:53:40 10° E visible
17 Apr ? 18:47:11 10° SSW 18:55:07 64° WNW 19:03:05 10° N visible
18 Apr ? 05:02:16 10° NNE 05:07:56 21° ENE 05:13:32 10° ESE visible
18 Apr ? 19:03:29 10° SW 19:10:46 38° WNW 19:18:05 10° N visible
19 Apr ? 05:16:25 10° N 05:23:37 35° ENE 05:30:47 10° SE visible
19 Apr ? 19:20:33 10° WSW 19:26:27 22° WNW 19:32:23 10° NNW visible
20 Apr ? 05:31:21 10° N 05:39:17 59° ENE 05:47:10 10° SSE visible
20 Apr ? 19:39:32 10° W 19:42:11 12° WNW 19:44:52 10° NW visible
22 Apr ? 04:10:07 10° NNE 04:15:29 19° ENE 04:20:48 10° ESE visible
22 Apr ? 18:10:55 10° SW 18:18:19 41° WNW 18:25:46 10° N visible
23 Apr ? 04:24:07 10° N 04:31:11 33° ENE 04:38:11 10° SE visible
23 Apr ? 18:27:52 10° WSW 18:34:00 24° WNW 18:40:10 10° NNW visible
24 Apr ? 04:38:57 10° N 04:46:50 55° ENE 04:54:40 10° SE visible
24 Apr ? 18:46:23 10° W 18:49:44 13° WNW 18:53:06 10° NW visible
